TimeEDT,TemperatureF,Dew PointF,Humidity,Sea Level PressureIn,VisibilityMPH,Wind Direction,Wind SpeedMPH,Gust SpeedMPH,PrecipitationIn,Events,Conditions,WindDirDegrees,DateUTC
12:55 AM,41.0,37.0,86,29.38,9.0,North,10.4,20.7,0.07,Rain,Light Rain,350,2012-10-15 04:55:00
1:55 AM,41.0,36.0,82,29.39,9.0,North,10.4,21.9,0.05,Rain,Light Rain,350,2012-10-15 05:55:00
2:55 AM,39.9,35.1,83,29.42,6.0,North,13.8,21.9,0.05,Rain,Rain,350,2012-10-15 06:55:00
3:55 AM,39.9,35.1,83,29.44,10.0,NNW,13.8,19.6,0.03,Rain,Light Rain,340,2012-10-15 07:55:00
4:17 AM,39.9,35.1,83,29.44,9.0,North,11.5,28.8,0.01,Rain,Light Rain,350,2012-10-15 08:17:00
4:55 AM,41.0,35.1,79,29.47,10.0,NNW,9.2,25.3,0.01,Rain,Light Rain,340,2012-10-15 08:55:00
5:22 AM,39.9,35.1,83,29.47,10.0,NNW,11.5,19.6,0.00,Rain,Light Rain,330,2012-10-15 09:22:00
5:48 AM,39.9,35.1,83,29.49,10.0,NNW,13.8,24.2,0.01,Rain,Light Rain,330,2012-10-15 09:48:00
5:55 AM,39.9,35.1,83,29.50,10.0,NNW,15.0,24.2,0.01,Rain,Light Rain,330,2012-10-15 09:55:00
6:55 AM,39.9,34.0,79,29.54,10.0,NNW,13.8,24.2,0.00,Rain,Light Rain,330,2012-10-15 10:55:00
7:55 AM,39.9,34.0,79,29.57,10.0,NNW,10.4,23.0,0.00,Rain,Light Rain,330,2012-10-15 11:55:00
8:48 AM,39.9,35.1,83,29.59,10.0,NW,12.7,20.7,0.01,Rain,Light Rain,320,2012-10-15 12:48:00
8:55 AM,39.9,35.1,83,29.60,10.0,NW,11.5,19.6,0.01,Rain,Light Rain,320,2012-10-15 12:55:00
9:55 AM,42.1,35.1,76,29.64,10.0,NW,15.0,25.3,0.00,,Overcast,320,2012-10-15 13:55:00
10:55 AM,43.0,34.0,71,29.68,10.0,NNW,15.0,24.2,N/A,,Overcast,330,2012-10-15 14:55:00
11:55 AM,43.0,35.1,74,29.70,10.0,NW,16.1,26.5,N/A,,Overcast,320,2012-10-15 15:55:00
12:55 PM,44.1,34.0,68,29.72,10.0,NW,13.8,21.9,N/A,,Overcast,320,2012-10-15 16:55:00
1:03 PM,44.6,35.6,71,29.71,10.0,NW,11.5,20.7,N/A,,Overcast,320,2012-10-15 17:03:00
1:25 PM,45.0,34.0,65,29.72,10.0,NW,11.5,24.2,N/A,,Overcast,320,2012-10-15 17:25:00
1:32 PM,45.0,34.0,65,29.72,10.0,NW,12.7,24.2,N/A,,Overcast,320,2012-10-15 17:32:00
1:44 PM,44.1,34.0,68,29.72,10.0,NW,16.1,23.0,N/A,,Overcast,310,2012-10-15 17:44:00
1:55 PM,45.0,35.1,68,29.73,10.0,NW,15.0,24.2,N/A,,Overcast,320,2012-10-15 17:55:00
2:51 PM,46.4,33.8,62,29.73,10.0,NW,12.7,20.7,N/A,,Mostly Cloudy,320,2012-10-15 18:51:00
2:55 PM,46.9,34.0,61,29.75,10.0,NW,13.8,19.6,N/A,,Mostly Cloudy,310,2012-10-15 18:55:00
3:55 PM,45.0,33.1,63,29.77,10.0,NW,12.7,21.9,N/A,,Overcast,320,2012-10-15 19:55:00
4:55 PM,45.0,32.0,60,29.80,10.0,NW,12.7,-,N/A,,Mostly Cloudy,310,2012-10-15 20:55:00
5:55 PM,44.1,30.0,58,29.83,10.0,NW,12.7,21.9,N/A,,Scattered Clouds,310,2012-10-15 21:55:00
6:55 PM,43.0,30.0,60,29.85,10.0,NW,6.9,18.4,N/A,,Mostly Cloudy,320,2012-10-15 22:55:00
7:55 PM,43.0,28.9,58,29.86,10.0,North,4.6,-,N/A,,Overcast,360,2012-10-15 23:55:00
8:55 PM,43.0,28.9,58,29.86,10.0,NNE,4.6,-,N/A,,Overcast,30,2012-10-16 00:55:00
9:55 PM,42.1,28.0,58,29.88,10.0,NE,4.6,-,N/A,,Overcast,50,2012-10-16 01:55:00
10:55 PM,41.0,28.0,60,29.90,10.0,Calm,Calm,-,N/A,,Overcast,0,2012-10-16 02:55:00
11:55 PM,39.9,28.9,65,29.90,10.0,SSE,3.5,-,N/A,,Overcast,160,2012-10-16 03:55:00